DW7564 Weather Reports


Display with metric or nautical units.
time (UTC)temp
F
wind
direction
speed
MPH
gust
MPH
rain 1hr
in
rain 24hr
in
rain mn
in
humidity
%
barometer
mb
20260506073046 54 46 0.0 0.0 0.00 0.00 0.00 87 1016.6
20260506071544 54 46 0.0 0.0 0.00 0.00 0.00 87 1016.5
20260506061527 54 46 0.0 0.0 0.00 0.00 0.00 87 1016.3
20260506044521 54 46 0.0 0.0 0.00 0.00 0.00 88 1015.6
20260506043007 54 46 0.0 0.0 0.00 0.00 0.00 88 1015.4
20260506041506 54 46 0.0 2.0 0.00 0.00 0.00 87 1015.3
20260506040006 56 337 0.0 0.0 0.00 0.00 0.00 85 1015.2
20260506034506 57 337 0.0 0.0 0.00 0.00 0.00 85 1015.0
20260506033007 57 337 0.0 0.0 0.00 0.00 0.00 84 1014.8
20260506031505 58 337 0.0 0.0 0.00 0.00 0.00 83 1014.7
20260506030004 58 337 0.0 0.0 0.00 0.00 0.00 83 1014.4
20260506024504 59 337 0.0 1.0 0.00 0.00 0.00 82 1014.5
20260506023110 59 46 0.0 0.0 0.00 0.00 0.00 81 1014.4
20260506021606 59 46 0.0 0.0 0.00 0.00 0.00 80 1014.5
20260506020044 59 46 0.0 0.0 0.00 0.00 0.00 80 1014.4
20260506014542 59 346 0.0 0.0 0.00 0.00 0.00 80 1014.3
20260506013048 59 346 0.0 0.0 0.00 0.00 0.00 80 1014.2
20260506011546 59 346 0.0 0.0 0.00 0.00 0.00 81 1014.3
20260506010041 59 355 0.0 0.0 0.00 0.00 0.00 81 1014.2
20260506004540 59 355 0.0 0.0 0.00 0.00 0.00 81 1014.3
20260506003041 59 355 0.0 2.0 0.00 0.00 0.00 81 1014.4
20260506001526 59 355 0.0 0.0 0.00 0.00 0.00 81 1014.4
20260506000025 59 346 0.0 4.0 0.00 0.00 0.00 81 1014.6
20260505234525 59 351 0.0 0.0 0.00 0.00 0.00 81 1014.6
20260505233023 60 351 0.0 0.0 0.00 0.00 0.00 78 1014.6
20260505231535 59 351 0.0 0.0 0.00 0.00 0.00 80 1014.6
20260505230024 59 351 0.0 0.0 0.00 0.00 0.00 81 1014.7
20260505224518 59 329 0.0 4.0 0.00 0.00 0.00 81 1014.8
20260505223018 59 327 0.0 2.0 0.00 0.00 0.00 80 1014.9
20260505221517 58 323 0.0 4.0 0.00 0.00 0.00 81 1014.9
20260505220019 59 348 0.0 0.0 0.00 0.00 0.00 80 1015.0
20260505214514 59 348 0.0 2.0 0.00 0.00 0.00 83 1015.0
20260505213017 59 348 0.0 3.0 0.00 0.00 0.00 81 1015.1
20260505211513 58 327 0.0 2.0 0.00 0.00 0.00 82 1015.1
20260505210013 58 327 0.0 3.0 0.00 0.00 0.00 82 1015.1
20260505204556 58 14 0.0 4.0 0.00 0.00 0.00 84 1015.3
20260505203119 57 345 0.0 4.0 0.00 0.00 0.00 84 1015.2
20260505201601 57 342 1.0 6.0 0.00 0.00 0.00 85 1015.4
20260505200055 57 31 0.0 3.0 0.00 0.00 0.00 85 1015.4
20260505194549 56 62 0.0 2.0 0.00 0.00 0.00 87 1015.4
20260505193049 56 319 2.0 4.0 0.00 0.00 0.00 87 1015.5
20260505191600 55 315 0.0 4.0 0.00 0.00 0.00 87 1015.4
20260505190046 55 313 0.0 4.0 0.00 0.00 0.00 87 1015.5
20260505184633 55 323 0.0 0.0 0.00 0.00 0.00 88 1015.5
20260505183031 54 315 1.0 4.0 0.00 0.00 0.00 87 1015.5
20260505181535 54 271 0.0 5.0 0.00 0.00 0.00 86 1015.4
20260505180027 53 265 0.0 3.0 0.00 0.00 0.00 85 1015.5
20260505174530 52 302 0.0 4.0 0.00 0.00 0.00 82 1015.4
20260505173022 52 304 0.0 3.0 0.00 0.00 0.00 80 1015.3
20260505171518 52 270 0.0 0.0 0.00 0.00 0.00 77 1015.2
20260505170020 51 280 0.0 0.0 0.00 0.00 0.00 76 1015.2
20260505164558 51 250 0.0 2.0 0.00 0.00 0.00 76 1015.2
20260505163057 51 277 0.0 0.0 0.00 0.00 0.00 76 1015.1
20260505161546 51 259 0.0 4.0 0.00 0.00 0.00 77 1015.1
20260505153043 51 242 0.0 0.0 0.00 0.00 0.00 77 1014.9
20260505151556 51 205 0.0 0.0 0.00 0.00 0.00 77 1014.8
20260505130106 50 272 0.0 3.0 0.00 0.00 0.00 84 1013.9
20260505124559 51 272 0.0 0.0 0.00 0.00 0.00 85 1013.9
20260505123059 51 272 0.0 0.0 0.00 0.00 0.00 86 1013.8
20260505121625 51 272 0.0 0.0 0.00 0.00 0.00 87 1013.7
20260505120055 51 272 0.0 5.0 0.00 0.00 0.00 87 1013.6
20260505114539 51 224 0.0 2.0 0.00 0.00 0.00 88 1013.5
20260505113035 51 202 2.0 4.0 0.00 0.00 0.00 88 1013.5
20260505111515 51 216 2.0 5.0 0.00 0.00 0.00 88 1013.4
20260505101558 51 229 1.0 5.0 0.00 0.00 0.00 88 1013.0
20260505100059 51 230 0.0 3.0 0.00 0.00 0.00 88 1012.8
20260505094555 51 230 0.0 0.0 0.00 0.00 0.00 88 1012.9
20260505093053 51 230 0.0 0.0 0.00 0.00 0.00 88 1012.7
20260505091551 51 252 0.0 7.0 0.00 0.00 0.00 88 1012.7
20260505090101 52 246 1.0 5.0 0.00 0.00 0.00 88 1012.6
20260505084540 52 221 0.0 3.0 0.00 0.00 0.00 88 1012.6
20260505083038 52 221 0.0 4.0 0.00 0.00 0.00 88 1012.5
20260505081542 52 224 3.0 6.0 0.00 0.00 0.00 88 1012.4